San Luis Obispo, CA

7:38 AM PST on December 07, 2016 (GMT -0800)
San Luis Obispo County-McChesney

Weather History for KSBP - September, 2013

Change the Weather History Date:

Tuesday, September 10, 2013

  Actual Average Record
Temperature  
Mean Temperature 64 °F -  
Max Temperature 71 °F 79 °F 101 °F (1984)
Min Temperature 57 °F 53 °F 45 °F (1964)
Degree Days  
Heating Degree Days 1    
Growing Degree Days 14 (Base 50)    
Moisture  
Dew Point 56 °F    
Average Humidity 81    
Maximum Humidity 96    
Minimum Humidity 59    
Precipitation  
Precipitation 0.00 in - - ()
Sea Level Pressure  
Sea Level Pressure 29.88 in    
Wind  
Wind Speed 5 mph (SSW)    
Max Wind Speed 12 mph    
Max Gust Speed 18 mph    
Visibility 9 miles    
Events      
Averages and records for this station are not official NWS values.
T = Trace of Precipitation, MM = Missing Value Source: NWS Daily Summary

Daily Weather History Graph

Daily Weather History Graph

Search for Another Location

Airport or City:

Trip Planner

Search our weather history database for the weather conditions in past years. The results will help you decide how hot, cold, wet, or windy it might be!

Date:

Astronomy

Sep. 10, 2013 Rise Set
Actual Time 6:41 AM PDT 7:16 PM PDT
Civil Twilight 6:16 AM PDT 7:41 PM PDT
Nautical Twilight 5:46 AM PDT 8:11 PM PDT
Astronomical Twilight 5:15 AM PDT 8:42 PM PDT
Moon 11:59 AM PDT (9/10) 10:37 PM PDT (9/10)
Length of Visible Light 13h 25m
Length of Day
12h 34m
Waxing Crescent, 29% of the Moon is Illuminated
Sep 10
Waxing Crescent
Sep 12
First Quarter
Sep 19
Full
Sep 26
Last Quarter
Oct 4
New

Hourly Weather History & Observations

Time (PDT) Temp. Dew Point Humidity Pressure Visibility Wind Dir Wind Speed Gust Speed Precip Events Conditions
12:56 AM 59.0 °F 55.9 °F 90% 29.81 in 10.0 mi North - - N/A   Overcast
1:43 AM 57.2 °F 55.4 °F 94% 29.82 in 10.0 mi SSW 4.6 mph - N/A   Overcast
1:56 AM 57.9 °F 55.9 °F 93% 29.82 in 8.0 mi SSW 11.5 mph 18.4 mph N/A   Overcast
2:56 AM 57.0 °F 55.9 °F 96% 29.82 in 9.0 mi Calm Calm - N/A   Overcast
3:10 AM 57.2 °F 55.4 °F 94% 29.82 in 10.0 mi SE 5.8 mph - N/A   Overcast
3:56 AM 57.9 °F 55.9 °F 93% 29.82 in 6.0 mi North - - N/A   Overcast
4:56 AM 57.0 °F 55.9 °F 96% 29.82 in 4.0 mi South 4.6 mph - N/A   Overcast
5:56 AM 57.0 °F 55.0 °F 93% 29.84 in 8.0 mi Calm Calm - N/A   Overcast
6:56 AM 57.0 °F 54.0 °F 89% 29.86 in 10.0 mi SSE 6.9 mph - N/A   Overcast
7:56 AM 57.9 °F 55.0 °F 90% 29.89 in 8.0 mi SE 4.6 mph - N/A   Overcast
8:56 AM 60.1 °F 55.0 °F 83% 29.90 in 10.0 mi SE 6.9 mph - N/A   Overcast
9:51 AM 60.8 °F 55.4 °F 82% 29.91 in 10.0 mi ESE 6.9 mph - N/A   Overcast
9:56 AM 61.0 °F 55.0 °F 81% 29.91 in 10.0 mi ESE 5.8 mph - N/A   Overcast
10:56 AM 63.0 °F 55.9 °F 78% 29.91 in 10.0 mi Calm Calm - N/A   Overcast
11:53 AM 64.4 °F 55.4 °F 73% 29.91 in 10.0 mi Calm Calm - N/A   Mostly Cloudy
11:56 AM 64.9 °F 55.9 °F 73% 29.91 in 10.0 mi Variable 4.6 mph - N/A   Mostly Cloudy
12:56 PM 71.1 °F 55.9 °F 59% 29.90 in 9.0 mi West 9.2 mph - N/A   Partly Cloudy
1:56 PM 70.0 °F 55.9 °F 61% 29.89 in 10.0 mi SSW 9.2 mph - N/A   Clear
2:56 PM 70.0 °F 55.9 °F 61% 29.88 in 10.0 mi SW 9.2 mph - N/A   Clear
3:56 PM 70.0 °F 55.9 °F 61% 29.88 in 10.0 mi SSW 8.1 mph - N/A   Clear
4:56 PM 69.1 °F 55.9 °F 63% 29.88 in 10.0 mi SW 5.8 mph - N/A   Clear
5:56 PM 69.1 °F 55.9 °F 63% 29.88 in 10.0 mi Variable 5.8 mph - N/A   Clear
6:56 PM 66.0 °F 57.0 °F 73% 29.89 in 10.0 mi WNW 5.8 mph - N/A   Clear
7:56 PM 62.1 °F 55.9 °F 80% 29.90 in 10.0 mi NNW 4.6 mph - N/A   Clear
8:56 PM 61.0 °F 55.9 °F 83% 29.92 in 10.0 mi North - - N/A   Clear
9:56 PM 59.0 °F 55.9 °F 90% 29.93 in 10.0 mi WNW 3.5 mph - N/A   Clear
10:56 PM 57.9 °F 54.0 °F 87% 29.93 in 10.0 mi Calm Calm - N/A   Clear
11:56 PM 57.9 °F 54.0 °F 87% 29.94 in 10.0 mi Calm Calm - N/A   Clear